sat.trackr.live / text

‹ back to catalog

STARLINK-4512

NORAD 53398 · 2022-097L

PAYLOAD ACTIVE UNKNOWN

§ Identity

Operator
Country
US
Launch date
2022-08-10
Launch site
AFETR
Launch vehicle
Mass (kg)
RCS (m²)

Purposes: comms

External: N2YO · Heavens-Above · Gunter

§ Orbital elements

Epoch: 2026-09-20T03:20:22.642080Z

Period
93.79 min
Inclination
53.1606°
Eccentricity
0.0001048
Mean motion
15.35404201 rev/d
Perigee alt
459.0 km
Apogee alt
460.4 km
Semi-major
6,837.9 km
B*
5.3715e-5
RAAN
323.3175°
Arg perigee
88.3608°
Mean anomaly
271.7515°
Rev number
22,797

§ Raw data

STARLINK-45121 53398U 22097L   26263.13915095  .00001494  00000+0  53715-4 0  99922 53398  53.1606 323.3175 0001048  88.3608 271.7515 15.35404201227971

JSON: /api/v1/satellites/53398 · /tle

For live sub-satellite position, see the globe view (requires WebGL).

§ Visibility from observer

Set your observer location to see the next 7 days of passes ≥ 10°. The values pass through the URL so the page stays shareable.

No JS? Fill the form by hand. The geolocation button needs JavaScript.